DECAYED

OBJECT X, 57025 (Decayed)

Orbit data source: Space-Track

You're viewing an Uncataloged Satellite

Recently launched and/or uncataloged satellites may have evolving metadata. Metadata may include but not limited to: Owner, Maufacturer, Bus, Motor, and Mission.

OBJECT X, 57025 was a Chinese satellite in LEO that was launched on Thu, 15 Jun 2023 UTC via a CHANG ZHENG 2D launch vehicle from the Taiyaun Space Center, China (TSC). Unknown objects in Earth's orbit typically refer to objects detected orbiting the Earth but have not yet been identified or cataloged. These objects could be anything from previously untracked satellites, spent rocket stages, debris from satellite collisions, or even natural meteoroids temporarily captured by Earth's gravity. This object's orbit decayed before it could be identified.

Not visible in the next 10 days
Identifier
57025, 2023-085X
Orbit
Decayed
Country
Flag of CNCN / PRC
Related business
None
Manufacturer
Unknown
Mission
Decayed Commercial Imaging
Bus & Motor
Unknown
Mass
Unknown
Launch date (UTC)
2023-06-15 (3 years ago)
Launch vehicle
CHANG ZHENG 2D
Launch site
Taiyaun Space Center, China (TSC)
Object type
Unknown
Shape & HBR
Box, 0.8 m
Radar Cross Section
2.000 m², Medium (>0.1 m² and < 1m²)

Expand to show TLE details & history
Last TLE update: 9 months ago

TLE from 9 months ago
0 OBJECT X
1 57025U 23085X   25278.88118350  .13236861  25818-5  69929-3 0  9992
2 57025  97.4477  41.8648 0010541 271.8792  88.1300 16.41641848129046
Epoch: 2025-10-05T21:08Z
TLE epoch observation values (Epoch: 2025-10-05T21:08:54.254Z)
Latitude
-0.0001°
Longitude
69.84633°
Altitude
164.473 km
Speed
7.808 km/s
True Right ascension
02h 47m 27s
True Declination
0° 00' 00"
Sunlit
Object was in full shadow at epoch
Visualization orbit readout
Latitude
Unknown
Longitude
Unknown
Altitude
Unknown
Speed
Unknown
Apparent Right ascension
Unknown
Apparent Declination
Unknown
Sunlit
N/A
Visualization observer readout
Local Sidereal Time
21:32:45
Azimuth
Unknown
Elevation
Unknown
Doppler factor
Unknown
Orbital elements
Apogee altitude
165.136 km
Perigee altitude
151.356 km
Semi-major axis
6,536.383 km
Eccentricity
0.00105
Inclination
97.4477°
RAAN
41.8648°
Arg. of periapsis
271.8792°
True anomaly
88.25073°
Mean anomaly
88.13°
Eccentric anomaly
88.19037°
Mean motion
4.10712 °/min
Orbital period
87.65 mins
BSTAR
0.00069929
Loading maneuver chart data...
Computing Atmospheric mass density...
Loading historical data...
Loading historical data...
Loading historical data...
Loading historical data...
Loading historical data...
Loading historical data...
Loading historical data...

Documentation

Showing up to 5 results
|